OH1KK Weather Reports


Display with metric or nautical units.
time (UTC)temp
F
wind
direction
speed
MPH
gust
MPH
rain 1hr
in
rain 24hr
in
rain mn
in
humidity
%
barometer
mb
20260508084931 50 250 2.0 3.0 0.00 0.00 0.00 39 1017.7
20260508083416 50 292 3.0 4.0 0.00 0.00 0.00 46 1017.7
20260508081901 51 284 3.0 4.0 0.00 0.00 0.00 45 1017.6
20260508080447 50 305 2.0 3.0 0.00 0.00 0.00 47 1017.5
20260508074932 50 284 0.0 1.0 0.00 0.00 0.00 50 1017.4
20260508073417 49 322 3.0 4.0 0.00 0.00 0.00 51 1017.3
20260508071902 49 302 4.0 4.0 0.00 0.00 0.00 49 1017.1
20260508070447 48 290 2.0 2.0 0.00 0.00 0.00 55 1016.9
20260508064933 47 315 3.0 4.0 0.00 0.00 0.00 56 1016.8
20260508061902 45 321 2.0 3.0 0.00 0.00 0.00 65 1016.4
20260508044934 38 169 1.0 2.0 0.00 0.00 0.00 86 1015.5
20260508043419 38 169 0.0 0.0 0.00 0.00 0.00 83 1015.5
20260508041904 35 168 0.0 0.0 0.00 0.00 0.00 88 1015.4
20260508034935 31 168 0.0 0.0 0.00 0.00 0.00 92 1015.1
20260508033422 29 168 0.0 0.0 0.00 0.00 0.00 93 1014.8
20260508031908 28 168 1.0 1.0 0.00 0.00 0.00 94 1014.8
20260508024935 25 168 0.0 0.0 0.00 0.00 0.00 96 1014.4
20260508021906 25 168 0.0 1.0 0.00 0.00 0.00 96 1014.1
20260508020451 25 168 0.0 1.0 0.00 0.00 0.00 96 1014.0
20260508014937 25 168 0.0 0.0 0.00 0.00 0.00 96 1014.0
20260508011906 26 168 0.0 0.0 0.00 0.00 0.00 96 1013.7
20260508010453 26 236 0.0 0.0 0.00 0.00 0.00 96 1013.6
20260508001908 27 276 0.0 0.0 0.00 0.00 0.00 96 1013.1
20260508000453 27 276 0.0 0.0 0.00 0.00 0.00 96 1013.0
20260507234939 27 276 0.0 0.0 0.00 0.00 0.00 96 1013.0
20260507231909 27 276 0.0 0.0 0.00 0.00 0.00 95 1012.6
20260507223424 27 276 0.0 0.0 0.00 0.00 0.00 94 1012.1
20260507221909 28 276 0.0 0.0 0.00 0.00 0.00 94 1012.1
20260507220455 28 276 0.0 0.0 0.00 0.00 0.00 93 1012.0
20260507214939 28 276 0.0 0.0 0.00 0.00 0.00 93 1011.9
20260507213425 29 276 0.0 0.0 0.00 0.00 0.00 93 1011.6
20260507211909 30 276 0.0 0.0 0.00 0.00 0.00 92 1011.3
20260507210456 31 276 0.0 0.0 0.00 0.00 0.00 92 1011.2
20260507203426 33 276 0.0 0.0 0.00 0.00 0.00 89 1011.0
20260507201910 34 276 0.0 0.0 0.00 0.00 0.00 88 1010.8
20260507200456 35 276 0.0 0.0 0.00 0.00 0.00 86 1010.6
20260507191912 37 275 0.0 0.0 0.00 0.00 0.00 81 1010.2
20260507190457 37 275 2.0 4.0 0.00 0.00 0.00 80 1010.4
20260507184943 38 275 1.0 2.0 0.00 0.00 0.00 79 1010.1
20260507183428 38 285 2.0 3.0 0.00 0.00 0.00 78 1010.0
20260507181912 39 294 2.0 3.0 0.00 0.00 0.00 76 1009.8
20260507170459 42 261 0.0 1.0 0.00 0.00 0.00 69 1009.1
20260507164943 42 292 2.0 4.0 0.00 0.00 0.00 68 1008.7
20260507161913 43 180 0.0 0.0 0.00 0.00 0.00 72 1008.5
20260507160459 43 181 0.0 0.0 0.00 0.00 0.00 73 1008.5
20260507154944 42 207 0.0 1.0 0.00 0.00 0.00 79 1008.3
20260507153429 41 207 0.0 0.0 0.00 0.00 0.00 76 1008.2
20260507144944 43 314 2.0 3.0 0.00 0.00 0.00 68 1007.9
20260507143429 46 220 4.0 5.0 0.00 0.00 0.00 48 1007.6
20260507140500 47 151 7.0 9.0 0.00 0.00 0.00 46 1007.0
20260507134945 44 136 6.0 8.0 0.00 0.00 0.00 48 1007.2
20260507133430 46 173 4.0 5.0 0.00 0.00 0.00 43 1007.1
20260507131915 47 201 6.0 10.0 0.00 0.00 0.00 43 1006.9
20260507123431 49 255 3.0 5.0 0.00 0.00 0.00 34 1006.9
20260507113431 50 182 2.0 3.0 0.00 0.00 0.00 38 1007.2
20260507110402 48 148 9.0 11.0 0.00 0.00 0.00 37 1007.2
20260507104947 48 267 4.0 5.0 0.00 0.00 0.00 39 1007.6
20260507103432 47 253 3.0 3.0 0.00 0.00 0.00 42 1007.4
20260507101918 47 103 0.0 1.0 0.00 0.00 0.00 42 1007.7
20260507100402 46 134 1.0 1.0 0.00 0.00 0.00 43 1007.6
20260507094948 47 264 3.0 3.0 0.00 0.00 0.00 43 1007.7